• In Belgium
  • List of Countries
  • For 7 days
  • Water Temperature
  • Satellite Maps
  • Weather Map
  • Weather Widgets
  • user-avatar
    Login

    Hourly Weather Roskoshnyy

    Today, 21 August, Tuesday

    Time Temperature Precipitation Wind Pressure Humidity
    00:00 +22°C° 0 mm 1 mps 740 mmHg 65%
    01:00 +22°C° 0 mm 1 mps 740 mmHg 65%
    02:00 +21°C° 0 mm 1 mps 740 mmHg 62%
    03:00 +21°C° 0 mm 1 mps 740 mmHg 63%
    04:00 +21°C° 0 mm 1 mps 740 mmHg 64%
    05:00 +21°C° 0 mm 1 mps 740 mmHg 65%
    06:00 +22°C° 0 mm 1 mps 740 mmHg 63%
    07:00 +24°C° 0 mm 2 mps 740 mmHg 61%
    08:00 +26°C° 0 mm 2 mps 740 mmHg 58%
    09:00 +27°C° 0 mm 2 mps 740 mmHg 54%
    10:00 +28°C° 0 mm 2 mps 740 mmHg 50%
    11:00 +30°C° 0 mm 3 mps 740 mmHg 47%
    12:00 +30°C° 0 mm 3 mps 740 mmHg 45%
    13:00 +31°C° 0 mm 3 mps 740 mmHg 44%
    14:00 +31°C° 0 mm 3 mps 740 mmHg 43%
    15:00 +30°C° 0 mm 3 mps 740 mmHg 48%
    16:00 +30°C° 0 mm 3 mps 739 mmHg 52%
    17:00 +29°C° 0 mm 3 mps 739 mmHg 57%
    18:00 +27°C° 0 mm 3 mps 739 mmHg 63%
    19:00 +25°C° 0 mm 3 mps 740 mmHg 69%
    20:00 +24°C° 0 mm 3 mps 740 mmHg 75%
    21:00 +22°C° 0 mm 3 mps 740 mmHg 77%
    22:00 +21°C° 0 mm 3 mps 740 mmHg 78%
    23:00 +20°C° 0 mm 3 mps 741 mmHg 79%

    Tomorrow, 22 August, Wednesday

    Time Temperature Precipitation Wind Pressure Humidity
    00:00 +19°C° 0 mm 3 mps 741 mmHg 80%
    01:00 +18°C° 0 mm 3 mps 741 mmHg 80%
    02:00 +18°C° 0 mm 3 mps 741 mmHg 80%
    03:00 +17°C° 0 mm 3 mps 742 mmHg 81%
    04:00 +16°C° 0 mm 3 mps 742 mmHg 83%
    05:00 +16°C° 0 mm 3 mps 742 mmHg 84%
    06:00 +17°C° 0 mm 3 mps 742 mmHg 80%
    07:00 +18°C° 0 mm 3 mps 743 mmHg 76%
    08:00 +19°C° 0 mm 3 mps 743 mmHg 72%
    09:00 +21°C° 0 mm 4 mps 743 mmHg 66%
    10:00 +22°C° 0 mm 4 mps 744 mmHg 60%
    11:00 +23°C° 0 mm 4 mps 744 mmHg 54%
    12:00 +23°C° 0 mm 4 mps 744 mmHg 53%
    13:00 +25°C° 0 mm 4 mps 744 mmHg 52%
    14:00 +25°C° 0 mm 4 mps 744 mmHg 51%
    15:00 +25°C° 0 mm 4 mps 744 mmHg 52%
    16:00 +24°C° 0 mm 3 mps 744 mmHg 52%
    17:00 +24°C° 0 mm 3 mps 744 mmHg 53%
    18:00 +21°C° 0 mm 3 mps 744 mmHg 57%
    19:00 +20°C° 0 mm 2 mps 744 mmHg 61%
    20:00 +18°C° 0 mm 2 mps 744 mmHg 65%
    21:00 +17°C° 0 mm 2 mps 745 mmHg 67%
    22:00 +17°C° 0 mm 2 mps 745 mmHg 68%
    23:00 +16°C° 0 mm 2 mps 745 mmHg 69%

    Day after tomorrow, 23 August, Thursday

    Time Temperature Precipitation Wind Pressure Humidity
    00:00 +15°C° 0 mm 2 mps 745 mmHg 70%
    01:00 +15°C° 0 mm 2 mps 745 mmHg 70%
    02:00 +14°C° 0 mm 2 mps 745 mmHg 71%
    03:00 +14°C° 0 mm 2 mps 745 mmHg 73%
    04:00 +13°C° 0 mm 2 mps 745 mmHg 74%
    05:00 +13°C° 0 mm 2 mps 745 mmHg 75%
    06:00 +15°C° 0 mm 2 mps 745 mmHg 71%
    07:00 +16°C° 0 mm 2 mps 745 mmHg 67%
    08:00 +18°C° 0 mm 3 mps 746 mmHg 63%
    09:00 +19°C° 0 mm 3 mps 745 mmHg 57%
    10:00 +21°C° 0 mm 3 mps 745 mmHg 52%
    11:00 +22°C° 0 mm 3 mps 745 mmHg 46%
    12:00 +24°C° 0 mm 3 mps 745 mmHg 44%
    13:00 +25°C° 0 mm 3 mps 745 mmHg 41%
    14:00 +25°C° 0 mm 3 mps 744 mmHg 39%
    15:00 +25°C° 0 mm 3 mps 744 mmHg 41%
    16:00 +25°C° 0 mm 3 mps 744 mmHg 43%
    17:00 +24°C° 0 mm 3 mps 744 mmHg 44%
    18:00 +21°C° 0 mm 3 mps 743 mmHg 48%
    19:00 +20°C° 0 mm 3 mps 743 mmHg 51%
    20:00 +18°C° 0 mm 2 mps 743 mmHg 54%
    21:00 +17°C° 0 mm 2 mps 743 mmHg 53%
    22:00 +16°C° 0 mm 2 mps 743 mmHg 53%
    23:00 +16°C° 0 mm 2 mps 743 mmHg 53%

    24 August, Friday

    Time Temperature Precipitation Wind Pressure Humidity
    00:00 +15°C° 0 mm 2 mps 743 mmHg 54%
    01:00 +15°C° 0 mm 2 mps 743 mmHg 55%
    02:00 +15°C° 0 mm 2 mps 743 mmHg 56%
    03:00 +14°C° 0 mm 2 mps 743 mmHg 57%
    04:00 +14°C° 0 mm 2 mps 742 mmHg 57%
    05:00 +14°C° 0 mm 2 mps 742 mmHg 58%
    06:00 +14°C° 0 mm 3 mps 742 mmHg 56%
    07:00 +17°C° 0 mm 3 mps 742 mmHg 54%
    08:00 +19°C° 0 mm 3 mps 742 mmHg 52%
    09:00 +21°C° 0 mm 4 mps 742 mmHg 47%
    10:00 +23°C° 0 mm 4 mps 742 mmHg 43%
    11:00 +26°C° 0 mm 4 mps 742 mmHg 38%
    12:00 +27°C° 0 mm 4 mps 742 mmHg 37%
    13:00 +27°C° 0 mm 3 mps 741 mmHg 35%
    14:00 +28°C° 0 mm 3 mps 741 mmHg 34%
    15:00 +27°C° 0 mm 3 mps 741 mmHg 36%
    16:00 +27°C° 0 mm 3 mps 740 mmHg 39%
    17:00 +27°C° 0 mm 2 mps 740 mmHg 42%
    18:00 +25°C° 0 mm 3 mps 740 mmHg 44%
    19:00 +21°C° 0 mm 3 mps 740 mmHg 45%
    20:00 +19°C° 0 mm 3 mps 740 mmHg 47%
    21:00 +19°C° 0 mm 3 mps 740 mmHg 46%
    22:00 +18°C° 0 mm 3 mps 740 mmHg 45%
    23:00 +18°C° 0 mm 3 mps 739 mmHg 44%

    25 August, Saturday

    Time Temperature Precipitation Wind Pressure Humidity
    00:00 +17°C° 0 mm 3 mps 739 mmHg 45%
    01:00 +17°C° 0 mm 3 mps 739 mmHg 45%
    02:00 +16°C° 0 mm 2 mps 739 mmHg 46%
    03:00 +16°C° 0 mm 2 mps 739 mmHg 47%
    04:00 +15°C° 0 mm 2 mps 739 mmHg 49%
    05:00 +15°C° 0 mm 2 mps 738 mmHg 50%
    06:00 +17°C° 0 mm 2 mps 739 mmHg 50%
    07:00 +18°C° 0 mm 2 mps 739 mmHg 50%
    08:00 +20°C° 0 mm 2 mps 739 mmHg 50%
    09:00 +23°C° 0 mm 2 mps 739 mmHg 47%
    10:00 +26°C° 0 mm 3 mps 739 mmHg 43%
    11:00 +28°C° 0 mm 3 mps 739 mmHg 39%
    12:00 +29°C° 0 mm 3 mps 739 mmHg 38%
    13:00 +30°C° 0 mm 3 mps 738 mmHg 37%
    14:00 +30°C° 0 mm 4 mps 738 mmHg 36%
    15:00 +30°C° 0 mm 3 mps 738 mmHg 40%
    16:00 +29°C° 0 mm 3 mps 738 mmHg 44%
    17:00 +29°C° 0 mm 2 mps 737 mmHg 48%
    18:00 +27°C° 0 mm 2 mps 737 mmHg 48%
    19:00 +26°C° 0 mm 2 mps 737 mmHg 48%
    20:00 +25°C° 0 mm 3 mps 737 mmHg 48%
    21:00 +24°C° 0 mm 3 mps 737 mmHg 47%
    22:00 +24°C° 0 mm 3 mps 737 mmHg 46%
    23:00 +22°C° 0 mm 3 mps 737 mmHg 45%

    26 August, Sunday

    Time Temperature Precipitation Wind Pressure Humidity
    00:00 +22°C° 0 mm 3 mps 737 mmHg 45%
    01:00 +21°C° 0 mm 3 mps 737 mmHg 45%
    02:00 +20°C° 0 mm 3 mps 737 mmHg 45%
    03:00 +20°C° 0 mm 3 mps 737 mmHg 45%
    04:00 +19°C° 0 mm 3 mps 737 mmHg 46%
    05:00 +19°C° 0 mm 3 mps 737 mmHg 46%
    06:00 +20°C° 0 mm 3 mps 737 mmHg 47%
    07:00 +21°C° 0 mm 3 mps 737 mmHg 48%
    08:00 +22°C° 0 mm 3 mps 738 mmHg 48%
    09:00 +25°C° 0 mm 4 mps 737 mmHg 43%
    10:00 +27°C° 0 mm 4 mps 737 mmHg 38%
    11:00 +29°C° 0 mm 4 mps 737 mmHg 33%
    12:00 +29°C° 0 mm 4 mps 737 mmHg 32%
    13:00 +29°C° 0 mm 4 mps 737 mmHg 31%
    14:00 +30°C° 0 mm 4 mps 737 mmHg 30%
    15:00 +29°C° 0 mm 4 mps 736 mmHg 33%
    16:00 +29°C° 0 mm 3 mps 736 mmHg 37%
    17:00 +28°C° 0 mm 3 mps 736 mmHg 41%
    18:00 +26°C° 0 mm 3 mps 736 mmHg 43%
    19:00 +24°C° 0 mm 3 mps 736 mmHg 46%
    20:00 +21°C° 0 mm 3 mps 736 mmHg 49%
    21:00 +21°C° 0 mm 3 mps 736 mmHg 49%
    22:00 +20°C° 0 mm 3 mps 736 mmHg 50%
    23:00 +20°C° 0 mm 3 mps 735 mmHg 51%
    Show more